Tracking 29892 objects as of 21-Nov-2024
HD Live streaming from Space Station
objects crossing your sky now

OBJECT B

Track OBJECT B now!
10-day predictions


NORAD ID: 52717
Int'l Code: 2022-056B
Perigee: 1,121.3 km
Apogee: 1,189.6 km
Inclination: 86.0 °
Period: 108.3 minutes
Semi major axis: 7526 km
RCS: Unknown
Launch date: May 20, 2022
Source: People's Republic of China (PRC)
Launch site: Jiuquan Satellite Launch Center, China (JSC)

Note: This is a ROCKET BODY
Your satellite tracking list
Your tracking list is empty




NASA's NSSDC Master Catalog

Two Line Element Set (TLE):
1 52717U 22056B   24325.91695916  .00000066  00000-0  10842-3 0  9999
2 52717  86.0036 321.4405 0045363 158.3360 201.9708 13.29586710122131
Source of the keplerian elements: AFSPC